Probability
0 0 0 0 0 0 0 0 0 0 0 0 0 0 0 0 0 0 0 0 0 0 0 0 0 0 0 0 0 0 0 0 0 0 0 0 0 0 0 0 0 0 0
0 0 0 0 0 0 0 0 0 0 0 0 0 0 0 0 0 0 0 0 0 0 0 0 0 0 0 0 0 0 0 0 0 0 0 0 0 0 0 0 0 0 0
0 0 0 0 0 0 0 0 0 0 0 0 0 0 0 0 0 0 0 0 0 0 0 0 0 0 0 0 0 0 0 0 0 0 0 0 0 0 0 0 0 0 0
0 0 0 0 0 0 0 0 0 0 0 0 0 0 0 0 0 0 0 0 0 0 0 0 0 0 0 0 0 0 0 0 0 0 0 0 0 0 0 0 0 0 0
0 0 0 0 0 0 0 0 0 0 0 0 0 0 0 0 0 0 0 0 0 0 0 0 0 0 0 0 0 0 0 0 0 0 0 0 0 0 0 0 0 0 0
0 0 0 0 0 0 0 0 0 0 0 0 0 0 0 0 0 0 0 0 0 0 0 0 0 0 0 0 0 0 0 0 0 0 0 0 0 0 0 0 0 0 0
0 0 0 0 0 0 0 0 0 0 0 0 0 0 0 0 0 0 0 0 0 0 0 0 0 0 0 0 0 0 0 0 0 0 0 0 0 0 0 0 0 0 0
0 0 0 0 0 0 0 0 0 0 0 0 0 0 0 0 0 0 0 0 0 0 0 0 0 0 0 0 0 0 0 0 0 0 0 0 0 0 0 0 0 0 0
0 0 0 0 0 0 0 0 0 0 0 0 0 0 0 0 0 0 0 0 0 0 0 0 0 0 0 0 0 0 0 0 0 0 0 0 0 0 0 0 0 0 0
0 0 0 0 0 0 0 0 0 0 0 0 0 0 0 0 0 0 0 0 0 0 0 0 0 0 0 0 0 0 0 0 0 0 0 0 0 0 0 0 0 0 0
0 0 0 0 0 0 0 0 0 0 0 0 0 0 0 0 0 0 0 0 0 0 0 0 0 0 0 0 0 0 0 0 0 0 0 0 0 0 0 0 0 0 0
0 0 0 0 0 0 0 0 0 0 0 0 0 0 0 0 0 0 0 0 0 0 0 0 0 0 0 0 0 0 0 0 0 0 0 0 0 0 0 0 0 0 0
0 0 0 0 0 0 0 0 0 0 0 0 0 0 0 0 0 0 0 0 0 0 0 0 0 0 0 0 0 0 0 0 0 0 0 0 0 0 0 0 0 0 0
0 0 0 0 0 0 0 0 0 0 0 0 0 0 0 0 0 0 0 0 0 0 0 0 0 0 0 0 0 0 0 0 0 0 0 0 0 0 0 0 0 0 0
0 0 0 0 0 0 0 0 0 0 0 0 0 0 0 0 0 0 0 0 0 0 0 0 0 0 0 0 0 0 0 0 0 0 0 0 0 0 0 0 0 0 0
0 0 0 0 0 0 0 0 0 0 0 0 0 0 0 0 0 0 0 0 0 0 0 0 0 0 0 0 0 0 0 0 0 0 0 0 0 0 0 0 0 0 0
0 0 0 0 0 0 0 0 0 0 0 0 0 0 0 0 0 0 0 0 0 0 0 0 0 0 0 0 0 0 0 0 0 0 0 0 0 0 0 0 0 0 0
0 0 0 0 0 0 0 0 0 0 0 0 0 0 0 0 0 0 0 0 0 0 0 0 0 0 0 0 0 0 0 0 0 0 0 0 0 0 0 0 0 0 0
0 0 0 0 0 0 0 0 0 0 0 0 0 0 0 0 0 0 0 0 0 0 0 0 0 0 0 0 0 0 0 0 0 0 0 0 0 0 0 0 0 0 0
0 0 0 0 0 0 0 0 0 0 0 0 0 0 0 0 0 0 0 0 0 0 0 0 0 0 0 0 0 0 0 0 0 0 0 0 0 0 0 0 0 0 0
0 0 0 0 0 0 0 0 0 0 0 0 0 0 0 0 0 0 0 0 0 0 0 0 0 0 0 0 0 0 0 0 0 0 0 0 0 0 0 0 0 0 0
0 0 0 0 0 0 0 0 0 0 0 0 0 0 0 0 0 0 0 0 0 0 0 0 0 0 0 0 0 0 0 0 0 0 0 0 0 0 0 0 0 0 0
0 0 0 0 0 0 0 0 0 0 0 0 0 0 0 0 0 0 0 0 0 0 0 0 0 0 0 0 0 0 0 0 0 0 0 0 0 0 0 0 0 0 0
0 0 0 0 0 0 0 0 0 0 0 0 0 0 0 0 0 0 0 0 0 0 0 0 0 0 0 0 0 0 0 0 0 0 0 0 0 0 0 0 0 0 0
0 0 0 0 0 0 0 0 0 0 0 0 0 0 0 0 0 0 0 0 0 0 0 0 0 0 0 0 0 0 0 0 0 0 0 0 0 0 0 0 0 0 0
0 0 0 0 0 0 0 0 0 0 0 0 0 0 0 0 0 0 0 0 0 0 0 0 0 0 0 0 0 0 0 0 0 0 0 0 0 0 0 0 0 0 0
Wind_Speed
5 4 5 4 4 3 3 4 3 2 0 3 2 3 4 4 5 5 5 6 7 7 7 7 7 7 6 5 5 6 6 7 11 9 7 8 10 10 9 8 9 9 9
5 5 4 3 3 2 4 3 2 1 2 3 3 4 5 5 4 5 6 7 6 7 7 7 7 7 7 6 6 7 7 7 10 12 9 9 10 10 10 10 10 11 8
6 5 4 3 3 3 3 2 1 1 2 4 4 5 5 5 6 8 9 9 9 9 9 9 8 8 8 6 7 8 7 9 7 10 11 9 9 10 10 11 11 8 9
7 5 4 3 3 2 2 2 3 4 4 5 5 6 7 9 11 11 11 10 9 9 9 9 9 8 7 7 7 7 7 7 7 8 9 9 9 9 8 7 7 5 5
5 4 2 1 1 1 3 4 4 5 6 6 6 7 7 7 9 10 10 10 10 10 10 9 9 12 14 10 9 7 8 8 8 8 9 9 9 8 7 6 7 7 7
2 0 1 1 1 2 2 3 4 5 5 6 7 7 7 6 6 9 9 9 10 10 10 9 10 12 13 13 16 17 14 11 9 9 9 10 11 10 8 8 8 9 8
1 1 1 1 3 3 4 5 5 6 6 6 6 6 5 3 2 4 9 10 10 9 9 10 11 11 13 10 12 15 14 16 17 13 12 12 12 10 9 10 9 10 10
2 2 2 2 3 3 5 6 5 5 5 5 5 5 5 2 1 4 10 10 9 9 9 10 11 11 12 11 11 11 10 11 13 11 10 10 9 8 9 11 12 11 9
3 3 4 4 4 5 6 6 6 5 4 5 5 5 5 3 1 5 9 10 8 9 10 11 12 12 13 13 12 12 12 10 12 13 11 11 13 13 11 8 7 6 4
5 5 5 5 4 5 6 5 5 4 4 5 6 5 6 5 4 5 10 9 9 10 10 10 12 12 14 14 11 10 11 9 7 7 7 7 7 7 9 6 5 3 2
5 4 4 4 3 6 5 3 4 5 4 5 6 6 5 7 7 9 12 9 9 10 10 9 8 14 16 15 12 9 10 9 7 6 5 4 4 3 4 5 5 4 3
4 4 4 5 6 6 5 4 4 5 5 6 6 7 6 7 9 12 15 14 13 11 9 8 9 17 17 14 8 7 8 6 3 2 2 3 3 3 3 4 5 5 5
4 4 4 6 6 6 5 5 5 5 5 6 6 7 7 7 8 13 15 16 16 10 9 14 16 16 13 9 10 11 7 3 2 2 3 3 3 2 2 2 3 4 4
4 3 4 6 6 5 4 5 5 6 6 6 6 6 6 6 7 9 9 9 11 10 9 11 13 12 9 8 8 7 5 5 4 3 2 2 2 2 2 2 3 3 3
3 3 5 6 5 4 4 4 5 5 4 4 5 5 5 6 10 14 10 8 8 9 9 6 5 6 6 6 5 5 5 5 4 3 3 3 2 2 2 2 2 3 4
4 5 5 5 4 3 2 2 1 1 4 3 3 4 6 7 12 14 16 14 12 14 8 7 7 7 7 6 6 5 5 5 4 3 3 3 3 2 2 2 3 4 5
6 5 4 4 3 2 2 2 1 3 6 6 3 4 7 10 11 14 16 14 11 11 6 7 7 7 7 6 5 5 4 4 4 3 4 4 3 3 3 4 5 6 6
5 4 3 3 2 2 1 1 2 3 2 1 1 3 8 9 9 13 15 11 9 8 7 7 7 8 7 7 5 4 4 4 4 4 4 4 3 3 4 5 6 7 7
6 4 3 2 2 2 1 2 3 4 4 4 5 5 8 8 8 12 11 8 7 7 7 7 7 7 7 7 6 5 4 4 5 4 5 5 3 4 4 5 6 8 8
3 1 4 4 4 4 4 5 5 5 5 4 6 7 8 8 7 8 8 7 7 7 7 7 7 8 8 8 7 6 5 5 6 5 5 4 3 3 4 5 5 5 6
2 2 1 4 6 6 6 6 6 6 5 5 5 6 7 7 6 7 7 6 6 7 7 7 7 7 7 7 8 8 8 7 7 7 6 4 3 3 3 4 4 4 5
4 4 5 6 5 5 6 6 7 7 7 7 5 5 6 6 5 6 6 6 6 5 6 6 6 6 6 6 7 7 8 8 9 8 7 5 4 4 4 4 4 4 4
5 6 6 6 6 5 6 7 7 7 7 7 7 6 5 5 4 5 5 6 5 5 5 5 6 6 7 6 5 6 7 7 8 9 7 5 4 4 5 5 6 5 5
7 8 8 7 7 7 7 7 7 7 7 7 7 6 5 4 4 4 4 4 5 5 5 5 5 8 10 8 6 6 6 7 8 8 9 5 4 4 4 5 5 6 5
8 7 7 7 7 7 7 7 7 7 7 7 7 6 6 6 5 5 4 4 5 6 6 5 5 7 10 10 10 9 10 11 9 9 8 5 5 5 5 5 4 4 5
8 8 7 6 6 6 7 7 7 7 7 7 7 7 7 7 7 6 6 5 5 6 7 6 7 9 12 10 11 11 11 11 11 11 7 4 5 5 5 4 6 5 6
Wind_Direction
120 111 114 125 132 138 106 109 104 86 169 252 258 268 266 261 256 254 259 267 269 272 278 282 283 285 286 285 283 281 279 279 285 290 291 294 291 289 288 284 281 270 264
104 95 91 93 99 104 104 101 128 163 275 297 301 294 291 292 292 291 295 306 317 321 320 316 311 309 309 306 303 302 298 296 295 298 300 299 295 297 289 281 282 276 265
92 86 69 65 72 67 84 84 17 336 309 308 313 315 318 331 355 5 7 4 356 341 331 323 319 316 311 312 311 303 299 297 296 295 295 292 289 286 286 285 279 275 277
64 66 53 46 54 40 38 24 359 355 344 349 355 356 2 32 36 22 8 350 341 331 321 314 310 307 302 300 297 289 289 290 287 284 284 285 285 284 286 287 293 296 295
50 61 53 24 344 6 22 21 25 17 8 9 6 7 12 48 37 21 358 345 333 318 311 308 305 302 295 286 283 284 286 283 282 281 283 287 290 294 296 301 301 302 292
22 89 147 274 32 50 32 40 37 25 14 10 13 12 13 36 46 24 358 333 316 311 312 311 305 297 301 299 292 289 284 282 282 280 282 283 286 289 292 295 293 291 287
220 204 166 89 75 50 28 41 31 24 22 12 6 9 17 87 72 351 339 320 312 313 314 311 310 311 312 302 303 303 295 287 280 277 277 277 281 287 292 289 281 278 274
191 135 96 90 88 65 50 36 34 31 18 354 357 4 346 27 200 312 325 320 316 315 312 308 308 309 309 312 306 296 286 280 275 275 272 278 285 288 285 282 280 274 267
118 96 75 61 53 50 48 32 31 14 4 349 360 347 338 358 276 317 334 326 319 317 312 310 308 306 307 307 302 294 289 283 276 274 272 280 284 285 285 282 277 272 268
87 78 69 57 47 57 55 34 18 0 6 352 350 340 345 3 10 0 346 331 325 321 312 309 306 308 308 304 300 293 290 291 299 307 303 298 293 295 304 308 315 305 294
98 97 80 48 48 73 58 42 22 5 1 354 351 350 4 11 9 7 348 336 328 319 317 319 320 321 318 312 303 286 281 291 298 300 301 306 313 326 354 12 15 8 359
111 95 81 62 41 48 43 45 31 7 8 11 3 359 4 5 4 352 338 330 326 324 323 325 328 328 328 328 329 324 313 307 296 303 325 344 346 5 31 34 28 28 22
99 86 82 87 75 48 38 39 30 20 20 15 6 358 354 354 351 347 336 330 331 332 328 332 332 332 338 347 359 4 6 5 358 4 10 3 349 15 44 36 26 19 17
82 87 100 92 84 69 45 41 40 24 21 14 5 353 347 346 349 345 337 333 337 340 335 330 329 331 342 348 356 4 7 8 7 16 10 352 1 41 46 31 20 4 7
87 83 89 80 71 68 68 47 45 60 40 8 3 347 344 347 339 331 336 342 345 341 332 335 341 343 354 359 359 1 2 5 12 10 3 360 13 51 62 45 30 18 24
60 64 72 68 59 55 81 138 107 121 190 231 277 329 351 353 339 341 344 346 351 349 351 351 350 350 354 0 0 0 0 2 2 360 356 353 360 32 68 63 47 43 41
60 54 62 60 57 46 29 35 116 194 218 229 242 349 354 350 355 353 349 347 2 2 3 355 351 349 351 355 359 357 356 353 354 354 350 351 4 34 61 67 63 62 57
86 80 74 81 72 62 46 29 35 34 32 16 209 26 359 359 12 5 355 357 6 6 359 354 350 348 347 349 350 351 354 359 2 356 348 348 5 50 72 75 76 77 71
46 42 18 44 57 43 30 40 56 51 35 21 13 18 12 6 19 14 6 9 360 357 354 351 348 347 346 347 350 355 2 2 0 352 347 353 24 58 77 87 92 95 88
111 31 326 12 30 24 32 37 44 46 43 36 31 19 7 11 13 7 5 1 357 353 351 348 347 348 348 350 354 4 12 10 1 354 352 4 21 46 80 90 91 96 101
74 100 242 37 41 22 23 33 41 44 40 45 56 45 16 19 14 2 357 355 353 349 347 343 344 346 350 354 0 8 14 8 359 354 356 5 15 25 60 88 91 89 99
30 38 41 44 56 35 24 37 42 42 38 39 53 63 47 32 15 4 357 354 350 346 343 340 341 344 347 353 3 8 10 5 357 351 350 360 10 21 44 74 86 86 91
35 42 43 42 42 51 42 40 43 44 41 40 43 43 37 31 21 9 1 354 351 349 348 347 346 348 351 351 357 10 8 354 340 338 342 355 15 28 40 59 68 69 72
49 43 40 36 38 40 44 42 41 43 43 42 42 43 37 30 28 17 2 352 352 353 353 351 350 348 354 359 358 5 2 346 337 336 343 4 30 43 43 51 62 71 71
52 48 46 42 39 40 44 45 44 42 42 41 40 38 34 32 33 31 15 2 359 1 4 1 356 357 356 5 8 359 345 343 350 347 343 360 31 44 44 47 51 58 63
48 47 48 46 44 47 47 45 44 46 44 41 38 34 33 32 30 29 25 17 13 9 10 6 10 17 9 4 359 351 344 343 344 344 341 360 32 36 34 38 48 56 68